When you browse on this site, cookies collect data to enhance your experience and personalize the content and advertising you see.
Visit our Privacy Policy to learn more. By continuing to use the site, you agree to this use of cookies and data.
  • In Czech Republic
  • List of Countries
  • For 7 days
  • Water Temperature
  • Satellite Maps
  • Weather Map
  • Weather Widgets
  • user-avatar
    Login

    Hourly Weather Fez

    Today, 18 June, Tuesday

    Time Temperature Precipitation Wind Pressure Humidity
    00:00 +21°C° 0 mm 1 mps 730 mmHg 53%
    01:00 +21°C° 0 mm 1 mps 730 mmHg 56%
    02:00 +20°C° 0 mm 1 mps 729 mmHg 59%
    03:00 +19°C° 0 mm 1 mps 729 mmHg 62%
    04:00 +19°C° 0 mm 1 mps 729 mmHg 63%
    05:00 +17°C° 0 mm 0 mps 729 mmHg 64%
    06:00 +17°C° 0 mm 0 mps 729 mmHg 66%
    07:00 +21°C° 0 mm 1 mps 730 mmHg 58%
    08:00 +22°C° 0 mm 1 mps 730 mmHg 51%
    09:00 +24°C° 0 mm 2 mps 730 mmHg 44%
    10:00 +26°C° 0 mm 2 mps 730 mmHg 39%
    11:00 +28°C° 0 mm 2 mps 730 mmHg 34%
    12:00 +30°C° 0 mm 3 mps 730 mmHg 29%
    13:00 +31°C° 0 mm 3 mps 729 mmHg 27%
    14:00 +33°C° 0 mm 4 mps 729 mmHg 25%
    15:00 +34°C° 0 mm 4 mps 729 mmHg 22%
    16:00 +33°C° 0 mm 5 mps 729 mmHg 23%
    17:00 +33°C° 0 mm 5 mps 729 mmHg 24%
    18:00 +32°C° 0 mm 6 mps 729 mmHg 25%
    19:00 +28°C° 0 mm 5 mps 729 mmHg 28%
    20:00 +26°C° 0 mm 4 mps 730 mmHg 32%
    21:00 +24°C° 0 mm 2 mps 730 mmHg 36%
    22:00 +23°C° 0 mm 2 mps 730 mmHg 40%
    23:00 +21°C° 0 mm 2 mps 730 mmHg 44%

    Tomorrow, 19 June, Wednesday

    Time Temperature Precipitation Wind Pressure Humidity
    00:00 +21°C° 0 mm 1 mps 730 mmHg 49%
    01:00 +21°C° 0 mm 1 mps 730 mmHg 52%
    02:00 +20°C° 0 mm 1 mps 730 mmHg 56%
    03:00 +20°C° 0 mm 1 mps 729 mmHg 59%
    04:00 +19°C° 0 mm 1 mps 729 mmHg 61%
    05:00 +17°C° 0 mm 0 mps 729 mmHg 63%
    06:00 +17°C° 0 mm 0 mps 729 mmHg 65%
    07:00 +21°C° 0 mm 1 mps 729 mmHg 59%
    08:00 +23°C° 0 mm 1 mps 729 mmHg 53%
    09:00 +24°C° 0 mm 2 mps 729 mmHg 46%
    10:00 +26°C° 0 mm 2 mps 729 mmHg 41%
    11:00 +28°C° 0 mm 3 mps 729 mmHg 36%
    12:00 +30°C° 0 mm 3 mps 729 mmHg 31%
    13:00 +32°C° 0 mm 4 mps 729 mmHg 30%
    14:00 +33°C° 0 mm 5 mps 729 mmHg 28%
    15:00 +34°C° 0 mm 5 mps 728 mmHg 27%
    16:00 +33°C° 0 mm 6 mps 729 mmHg 32%
    17:00 +30°C° 0 mm 6 mps 729 mmHg 37%
    18:00 +29°C° 0 mm 7 mps 729 mmHg 42%
    19:00 +27°C° 0 mm 6 mps 729 mmHg 48%
    20:00 +25°C° 0 mm 4 mps 730 mmHg 53%
    21:00 +22°C° 0 mm 3 mps 730 mmHg 58%
    22:00 +21°C° 0 mm 2 mps 730 mmHg 62%
    23:00 +20°C° 0 mm 2 mps 730 mmHg 66%

    Day after tomorrow, 20 June, Thursday

    Time Temperature Precipitation Wind Pressure Humidity
    00:00 +21°C° 0 mm 1 mps 730 mmHg 70%
    01:00 +20°C° 0 mm 1 mps 730 mmHg 72%
    02:00 +20°C° 0 mm 1 mps 730 mmHg 74%
    03:00 +19°C° 0 mm 1 mps 729 mmHg 77%
    04:00 +19°C° 0 mm 1 mps 729 mmHg 78%
    05:00 +19°C° 0 mm 1 mps 729 mmHg 78%
    06:00 +19°C° 0 mm 1 mps 729 mmHg 79%
    07:00 +20°C° 0 mm 1 mps 729 mmHg 72%
    08:00 +21°C° 0 mm 2 mps 729 mmHg 64%
    09:00 +23°C° 0 mm 2 mps 730 mmHg 57%
    10:00 +25°C° 0 mm 2 mps 730 mmHg 49%
    11:00 +27°C° 0 mm 3 mps 730 mmHg 42%
    12:00 +29°C° 0 mm 3 mps 730 mmHg 34%
    13:00 +30°C° 0 mm 4 mps 729 mmHg 30%
    14:00 +32°C° 0 mm 4 mps 729 mmHg 27%
    15:00 +33°C° 0 mm 4 mps 728 mmHg 23%
    16:00 +32°C° 0 mm 5 mps 728 mmHg 28%
    17:00 +30°C° 0 mm 6 mps 728 mmHg 32%
    18:00 +29°C° 0 mm 7 mps 728 mmHg 37%
    19:00 +27°C° 0 mm 6 mps 729 mmHg 44%
    20:00 +25°C° 0 mm 4 mps 729 mmHg 51%
    21:00 +23°C° 0 mm 2 mps 730 mmHg 59%
    22:00 +21°C° 0 mm 2 mps 730 mmHg 63%
    23:00 +20°C° 0 mm 2 mps 730 mmHg 67%

    21 June, Friday

    Time Temperature Precipitation Wind Pressure Humidity
    00:00 +20°C° 0 mm 1 mps 730 mmHg 71%
    01:00 +19°C° 0 mm 1 mps 729 mmHg 75%
    02:00 +19°C° 0 mm 1 mps 729 mmHg 79%
    03:00 +18°C° 0 mm 1 mps 729 mmHg 83%
    04:00 +18°C° 0 mm 1 mps 729 mmHg 84%
    05:00 +18°C° 0 mm 1 mps 729 mmHg 85%
    06:00 +18°C° 0 mm 1 mps 729 mmHg 85%
    07:00 +19°C° 0 mm 1 mps 729 mmHg 77%
    08:00 +21°C° 0 mm 1 mps 729 mmHg 68%
    09:00 +23°C° 0 mm 1 mps 730 mmHg 60%
    10:00 +25°C° 0 mm 2 mps 729 mmHg 51%
    11:00 +27°C° 0 mm 3 mps 729 mmHg 41%
    12:00 +29°C° 0 mm 3 mps 729 mmHg 32%
    13:00 +30°C° 0 mm 3 mps 729 mmHg 29%
    14:00 +31°C° 0 mm 3 mps 729 mmHg 26%
    15:00 +33°C° 0 mm 4 mps 728 mmHg 23%
    16:00 +33°C° 0 mm 4 mps 728 mmHg 25%
    17:00 +32°C° 0 mm 5 mps 728 mmHg 26%
    18:00 +32°C° 0 mm 6 mps 728 mmHg 28%
    19:00 +28°C° 0 mm 5 mps 729 mmHg 33%
    20:00 +26°C° 0 mm 4 mps 729 mmHg 38%
    21:00 +22°C° 0 mm 3 mps 729 mmHg 43%
    22:00 +23°C° 0 mm 2 mps 729 mmHg 47%
    23:00 +21°C° 0 mm 2 mps 729 mmHg 50%

    22 June, Saturday

    Time Temperature Precipitation Wind Pressure Humidity
    00:00 +21°C° 0 mm 1 mps 729 mmHg 54%
    01:00 +20°C° 0 mm 1 mps 729 mmHg 57%
    02:00 +20°C° 0 mm 1 mps 729 mmHg 61%
    03:00 +19°C° 0 mm 1 mps 728 mmHg 65%
    04:00 +19°C° 0 mm 1 mps 728 mmHg 65%
    05:00 +19°C° 0 mm 1 mps 728 mmHg 65%
    06:00 +17°C° 0 mm 0 mps 729 mmHg 66%
    07:00 +20°C° 0 mm 1 mps 729 mmHg 58%
    08:00 +22°C° 0 mm 1 mps 729 mmHg 49%
    09:00 +24°C° 0 mm 1 mps 729 mmHg 41%
    10:00 +26°C° 0 mm 2 mps 729 mmHg 36%
    11:00 +28°C° 0 mm 2 mps 728 mmHg 32%
    12:00 +30°C° 0 mm 2 mps 728 mmHg 27%
    13:00 +31°C° 0 mm 3 mps 728 mmHg 25%
    14:00 +33°C° 0 mm 3 mps 728 mmHg 24%
    15:00 +35°C° 0 mm 4 mps 727 mmHg 22%
    16:00 +34°C° 0 mm 5 mps 727 mmHg 25%
    17:00 +33°C° 0 mm 6 mps 727 mmHg 28%
    18:00 +32°C° 0 mm 6 mps 727 mmHg 31%
    19:00 +29°C° 0 mm 5 mps 727 mmHg 36%
    20:00 +26°C° 0 mm 4 mps 728 mmHg 41%
    21:00 +24°C° 0 mm 3 mps 728 mmHg 46%
    22:00 +22°C° 0 mm 3 mps 728 mmHg 49%
    23:00 +23°C° 0 mm 2 mps 728 mmHg 51%

    23 June, Sunday

    Time Temperature Precipitation Wind Pressure Humidity
    00:00 +22°C° 0 mm 1 mps 728 mmHg 54%
    01:00 +21°C° 0 mm 1 mps 728 mmHg 57%
    02:00 +21°C° 0 mm 1 mps 727 mmHg 59%
    03:00 +20°C° 0 mm 1 mps 727 mmHg 62%
    04:00 +20°C° 0 mm 1 mps 727 mmHg 62%
    05:00 +18°C° 0 mm 0 mps 727 mmHg 62%
    06:00 +18°C° 0 mm 0 mps 727 mmHg 63%
    07:00 +22°C° 0 mm 1 mps 727 mmHg 56%
    08:00 +24°C° 0 mm 1 mps 727 mmHg 50%
    09:00 +26°C° 0 mm 2 mps 727 mmHg 43%
    10:00 +27°C° 0 mm 2 mps 727 mmHg 39%
    11:00 +29°C° 0 mm 3 mps 727 mmHg 35%
    12:00 +31°C° 0 mm 3 mps 727 mmHg 31%
    13:00 +33°C° 0 mm 3 mps 726 mmHg 29%
    14:00 +34°C° 0 mm 4 mps 726 mmHg 27%
    15:00 +35°C° 0 mm 4 mps 726 mmHg 25%
    16:00 +34°C° 0 mm 5 mps 726 mmHg 27%
    17:00 +33°C° 0 mm 6 mps 726 mmHg 30%
    18:00 +32°C° 0 mm 7 mps 726 mmHg 32%
    19:00 +29°C° 0 mm 6 mps 726 mmHg 37%
    20:00 +26°C° 0 mm 4 mps 727 mmHg 42%
    21:00 +24°C° 0 mm 3 mps 727 mmHg 47%
    22:00 +24°C° 0 mm 2 mps 727 mmHg 50%
    23:00 +23°C° 0 mm 2 mps 727 mmHg 52%
    Show more